Location: ??????
(38.3227°N, 23.7019°E)
Time: 22:37:22
(UTC+00:00)

Daily predictions for brighter satellites

Satellite Brightness Start Highest point End
(mag) Time Altitude Azimuth Time Altitude Azimuth Time Altitude Azimuth
Cosmos 841 Rocket 3.6 17:46:40 10° NNW 17:51:48 62° ENE 17:56:52 10° SSE
Helios 1A Rocket 2.9 17:50:13 10° SSE 17:54:20 80° ENE 17:58:28 10° N
SL-16 R/B 4.3 17:50:43 10° NW 17:55:26 27° WSW 18:00:07 10° SSW
Okean-O 4.0 17:52:54 10° S 17:57:05 41° W 18:01:17 10° NNW
BREEZE-M (TANK) 4.4 17:39:19 10° NW 17:59:14 79° SW 18:03:32 10° SE
CZ-2C R/B 4.3 17:58:46 10° N 18:03:45 40° WNW 18:08:49 10° SW
Cosmos 2263 Rocket 3.5 17:58:53 10° SW 18:04:10 45° WNW 18:09:32 10° N
Cosmos 1743 Rocket 4.5 18:00:44 10° NNE 18:04:32 29° ENE 18:08:19 10° SE
OBJECT-B 1.1 18:01:41 10° SSE 18:04:49 49° ENE 18:07:58 10° N
Cosmos 1174 3.3 18:02:34 10° NNW 18:06:15 89° NE 18:09:22 10° SSE
Cosmos 1943 3.2 18:01:42 10° NNW 18:07:22 82° ENE 18:13:01 10° SSE
Cosmos 1844 Rocket 3.1 18:04:32 10° S 18:09:37 38° ESE 18:14:45 10° NE
USA 186 1.3 18:07:11 10° S 18:09:54 80° WSW 18:12:27 10° NNW
FALCON 9 DEB 3.4 18:07:16 10° NW 18:10:39 61° SW 18:13:41 12° SE
SL-4 R/B 3.7 18:08:37 10° NNW 18:12:25 28° NNE 18:16:24 10° E
Cosmos 1606 3.2 18:09:35 10° SSE 18:13:04 38° E 18:16:35 10° NNE
GENESIS II 4.4 18:10:47 10° NW 18:14:39 70° WSW 18:18:28 10° SSE
Nadezhda 2 Rocket 4.5 18:08:56 10° N 18:15:02 65° E 18:21:04 10° SSE
ASTRO E2 3.8 18:12:02 10° WSW 18:15:31 29° S 18:18:07 15° SE
BREEZE-M DEB (TANK) 2.2 18:13:51 10° NW 18:16:00 47° NE 18:18:11 15° ESE
Cosmos 1500 Rocket 4.0 18:12:49 10° N 18:17:00 41° E 18:20:41 12° SSE
CZ-4 R/B 4.3 18:14:58 10° SW 18:17:24 15° W 18:19:50 10° WNW
Cosmos 1553 Rocket 4.1 18:12:07 10° SSE 18:17:59 53° E 18:23:58 10° NNE
Cosmos 2221 2.6 18:14:46 10° S 18:19:03 80° W 18:23:23 10° N
Cosmos 1570 Rocket 4.0 18:16:02 10° NNW 18:21:18 82° ENE 18:26:31 10° SSE
Ariane Rocket 3.1 18:19:26 10° SSE 18:24:23 59° ENE 18:29:21 10° N
Cosmos 1844 4.0 18:20:56 10° S 18:26:19 44° ESE 18:31:42 10° NE
Resurs 01 Rocket 2.4 18:28:47 18° SE 18:31:27 34° ENE 18:35:28 10° N
Cosmos 1814 Rocket 4.2 18:31:59 10° NNW 18:37:12 73° WSW 18:42:06 11° S
ATLAS 5 CENTAUR R/B 3.9 18:34:22 10° N 18:38:39 21° NE 18:42:44 12° E
SPOT 3 Rocket 4.0 18:39:18 21° SE 18:42:26 44° ENE 18:47:18 10° N
USA 290 4.4 18:43:31 10° NNE 18:45:20 14° ENE 18:45:31 14° ENE
Cosmos 1933 3.9 18:45:06 26° SE 18:46:44 38° E 18:50:30 10° NNE
Cosmos 1862 4.3 18:43:33 10° NNW 18:47:23 46° W 18:51:13 10° SSW
Sich 1 3.6 18:45:50 10° N 18:49:53 38° ENE 18:51:21 29° ESE
Cosmos 968 Rocket 3.8 18:50:36 10° SSW 18:55:50 71° WNW 19:01:05 10° NNE
NOSS 3-3 (A) 4.3 18:51:52 15° S 18:55:52 34° ESE 19:01:19 10° NE
NOSS 3-3 (C) 4.3 18:52:08 16° S 18:55:59 34° ESE 19:01:26 10° NE
Cosmos 1486 Rocket 4.1 18:53:08 10° SSW 18:58:27 85° WNW 19:03:49 10° NNE
FALCON 9 DEB 3.3 18:58:44 10° NW 19:01:41 46° NE 19:02:04 43° ENE
CZ-2C R/B 3.7 18:58:54 10° NNE 19:03:19 58° E 19:05:31 28° S
Cosmos 1437 Rocket 3.1 18:59:34 10° SSW 19:03:20 62° W 19:07:12 10° N
BREEZE-M R/B 4.1 19:07:02 10° W 19:09:22 25° NNW 19:11:29 10° NNE
X-37B 2.8 19:07:00 10° NW 19:09:39 23° N 19:11:27 15° NE
Cosmos 1151 Rocket 3.5 19:09:24 39° ESE 19:09:48 40° E 19:13:53 10° NNE
Landsat 7 3.7 19:09:30 35° SSE 19:11:27 73° ENE 19:16:12 10° N
Meteor 1-20 Rocket 4.2 19:07:11 10° N 19:12:46 65° E 19:15:04 35° SSE
Cosmos 1782 3.2 19:14:35 43° E 19:14:35 43° E 19:18:18 10° NNE
ARIANE 5 R/B 3.2 19:20:03 36° E 19:20:22 37° ENE 19:24:22 10° N
CRYOSAT 2 4.5 19:19:28 44° SE 19:20:42 57° E 19:25:30 10° N
Cosmos 1242 Rocket 2.4 19:21:33 63° SSW 19:22:05 86° W 19:25:40 10° N
Cosmos 1386 Rocket 4.5 19:18:20 10° N 19:24:22 79° W 19:27:55 26° S
Cosmos 883 Rocket 4.4 19:22:56 24° S 19:26:59 82° E 19:33:21 10° N
Cosmos 1805 Rocket 4.1 19:24:16 10° NNW 19:28:31 54° W 19:30:15 32° SSW
DELTA 2 R/B (1) 3.5 19:22:59 10° W 19:28:34 87° NNE 19:30:35 41° E
Cosmos 1745 Rocket 4.1 19:23:06 10° NNW 19:29:16 70° W 19:32:57 25° S
Cosmos 1709 Rocket 3.9 19:26:12 10° N 19:32:19 70° E 19:34:20 43° SSE
Spot 2 Rocket 3.6 19:31:27 49° ESE 19:32:24 58° ENE 19:37:21 10° N
Cosmos 1633 Rocket 3.0 19:33:29 10° N 19:37:51 64° E 19:37:54 64° E
Cosmos 2278 Rocket 3.0 19:39:21 32° E 19:39:21 32° E 19:43:20 10° NE
Meteor 1-25 Rocket 4.3 19:34:02 10° NNW 19:39:52 77° W 19:42:09 39° S
Cosmos 2315 Rocket 3.9 19:37:38 32° S 19:40:51 87° E 19:47:17 10° N
Cosmos 1602 3.8 19:39:58 10° N 19:43:28 73° N 19:43:28 73° N
Cosmos 1328 Rocket 3.4 19:44:44 82° SE 19:44:50 83° E 19:49:17 10° N
Cosmos 1470 Rocket 4.3 19:41:42 10° N 19:45:25 41° ENE 19:45:25 41° ENE
CARTOSAT-1 3.5 19:50:28 72° NE 19:50:28 72° NE 19:54:33 10° N
ERS-1 Rocket 3.1 19:51:04 56° E 19:51:14 57° ENE 19:56:09 10° N
SL-4 R/B 2.4 19:47:51 10° NW 19:52:14 66° SW 19:52:14 66° SW
Cosmos 1777 Rocket 3.9 19:56:17 70° E 19:56:17 70° E 20:01:20 10° NNE
Cosmos 1666 Rocket 4.1 19:58:10 10° NNW 20:02:27 52° W 20:02:37 51° WSW
SPOT 5 2.9 20:04:34 75° ENE 20:04:34 75° ENE 20:09:41 10° N
Resurs 01 Rocket 3.8 20:06:20 16° WSW 20:07:59 20° W 20:11:15 10° NW
SPOT 1/Viking Rocket 4.3 20:07:26 40° SW 20:08:32 46° W 20:13:33 10° NNW
Cosmos 1812 4.1 20:11:10 34° N 20:11:10 34° N 20:13:28 10° N
Meteor 1-5 Rocket 4.2 20:06:06 10° N 20:11:11 63° ENE 20:11:11 63° ENE
CZ-4C R/B 3.4 20:09:20 10° NNW 20:16:33 52° NE 20:18:51 41° E
Terra 2.2 20:19:12 60° NNE 20:19:12 60° NNE 20:23:13 10° N
Meteor 1-14 Rocket 4.2 20:13:52 10° NNW 20:19:44 74° W 20:20:14 69° SW
SJ 16-02 2.9 20:24:22 28° NNE 20:24:22 28° NNE 20:26:32 10° NNE
ATLAS 5 CENTAUR R/B 2.3 20:17:53 10° NW 20:23:49 79° WSW 20:24:16 74° SSW
Cosmos 1833 Rocket 2.9 20:25:03 10° NNW 20:30:16 59° NE 20:30:16 59° NE
Meteor 1-27 Rocket 4.2 20:42:48 55° NE 20:42:48 55° NE 20:47:33 10° NNE
ATLAS 2AS CENTAUR R/B 4.0 20:48:27 10° NNW 20:54:47 30° NE 20:56:49 26° ENE
COSMOS 2406 3.5 20:50:04 10° NNW 20:54:50 64° NW 20:54:50 64° NW
Milstar 3 4.2 20:46:10 10° WSW 20:53:33 34° SW 20:53:33 34° SW
Cosmos 2082 Rocket 2.9 20:56:11 10° NNW 21:00:42 48° NNE 21:00:42 48° NNE
Cosmos 2154 Rocket 4.1 21:00:07 10° N 21:05:55 75° NNW 21:05:55 75° NNW
Meteor 1-11 Rocket 4.1 21:02:33 10° NNW 21:07:42 65° NW 21:07:42 65° NW
Centaur D AC-29 4.2 19:52:14 10° WSW 21:10:00 44° S 21:10:00 44° S
Cosmos 2278 Rocket 3.7 21:21:07 28° W 21:22:19 31° WNW 21:27:19 10° N
Cosmos 2369 Rocket 4.2 21:37:02 18° ENE 21:37:02 18° ENE 21:38:48 10° NE
Cosmos 2181 Rocket 4.5 21:39:59 54° NNE 21:39:59 54° NNE 21:44:41 10° N
Cosmos 1943 Rocket 3.4 21:49:38 37° NNE 21:49:38 37° NNE 21:52:55 10° NNE
Cosmos 2341 Rocket 4.5 21:49:19 10° NNW 21:54:31 57° NW 21:54:31 57° NW
Cosmos 2366 rocket 4.5 21:53:51 10° N 21:58:38 56° N 21:58:38 56° N
SJ 16-02 4.2 22:01:18 11° WNW 22:01:18 11° WNW 22:02:40 10° NW
CZ-4C R/B 3.9 21:58:06 10° NW 22:04:01 38° W 22:04:01 38° W
USA 215 3.4 22:40:07 69° N 22:40:07 69° N 22:46:02 10° NW
SeaSat 1 3.9 22:38:47 10° NNE 22:41:44 33° N 22:41:44 33° N
ATLAS 2AS CENTAUR R/B 3.4 22:39:08 10° NW 22:44:14 45° WNW 22:44:14 45° WNW
Cosmos 1607 4.3 23:02:08 62° NNE 23:02:08 62° NNE 23:07:29 10° NNE
Resurs 1-4 Rocket 4.0 22:59:05 10° NE 23:01:57 21° ENE 23:01:57 21° ENE
Cosmos 2369 Rocket 3.4 23:18:48 34° NW 23:18:48 34° NW 23:23:03 10° N
ATLAS CENTAUR R/B 4.0 23:30:19 16° NNE 23:30:19 16° NNE 23:31:10 10° NNE
USA 281 3.4 23:27:08 61° E 23:27:45 64° ENE 23:34:14 10° NNW
Cosmos 1943 Rocket 4.3 23:31:07 16° WNW 23:31:39 16° NW 23:35:01 10° NNW
SL-16 R/B 3.3 23:38:18 41° ESE 23:39:40 47° ENE 23:45:37 10° N
